Regional Weather Roundup
Issued by NWS Little Rock, AR

Home | Current Version | Previous Version | Graphics & Text | Print | Product List | Glossary On
Versions: 1 2 3 4 5 6 7 8 9 10 11 12 13 14 15 16 17 18 19 20 21 22 23 24 25 26 27 28 29 30 31 32 33 34 35 36 37 38 39 40 41 42 43 44 45 46 47 48 49 50
000
ASUS44 KLZK 271405
RWRLZK

WEATHER ROUNDUP FOR ARKANSAS
NATIONAL WEATHER SERVICE LITTLE ROCK AR
800 AM CST MON FEB 27 2017

NOTE: "FAIR" INDICATES FEW OR NO CLOUDS BELOW 12,000 FEET WITH NO
SIGNIFICANT WEATHER AND/OR OBSTRUCTIONS TO VISIBILITY.

ARZ001-003-010-029-271500-
NORTHWEST ARKANSAS

CITY           SKY/WX    TMP DP  RH WIND       PRES   REMARKS
FAYETTEVILLE   MOSUNNY   33  33 100 CALM      30.03R
FORT SMITH     SUNNY     44  37  76 E9        30.04S
HARRISON       SUNNY     37  32  82 SE6       30.05S
BENTONVILLE    SUNNY     43  34  70 SE5       30.03R
ROGERS         SUNNY     41  36  82 E8        30.02S
SILOAM SPGS    MOSUNNY   39  30  70 E6        30.02R
HIGHFILL       SUNNY     40  33  76 CALM      30.01R
SPRINGDALE     SUNNY     39  34  81 E3        30.03S
$$

ARZ004-005-016-271500-
NORTH CENTRAL ARKANSAS

CITY           SKY/WX    TMP DP  RH WIND       PRES   REMARKS
BATESVILLE     CLOUDY    45  41  87 CALM      30.11S
FLIPPIN        SUNNY     36  28  75 CALM      30.06R
MTN HOME       SUNNY     42  36  79 S5        30.07R
$$

ARZ040-041-271500-
WEST CENTRAL ARKANSAS

CITY           SKY/WX    TMP DP  RH WIND       PRES   REMARKS
MENA           CLOUDY    50  50 100 CALM      30.05S
MOUNT IDA      LGT RAIN  48  47  96 VRB3      30.03R
$$

ARZ009-017-025-026-028-271500-
NORTHEAST ARKANSAS

CITY           SKY/WX    TMP DP  RH WIND       PRES   REMARKS
CORNING        FAIR      48  46  93 SE6       30.13R
JONESBORO      PTSUNNY   49  46  90 SE5       30.12R
NEWPORT        CLOUDY    48  46  93 MISG      30.12
WALNUT RIDGE   SUNNY     46  43  87 E5        30.12R
BLYTHEVILLE    CLOUDY    50  47  89 SE5       30.14R
NW BLYTHEVILLE PTSUNNY   50  46  87 SE3       30.13
$$

ARZ022-023-033-042-044-271500-
CENTRAL ARKANSAS

CITY           SKY/WX    TMP DP  RH WIND       PRES   REMARKS
LITTLE ROCK    CLOUDY    48  48 100 E6        30.09S FOG
N LITTLE ROCK    N/A     47  46  96 E3        30.11R
JACKSONVILLE   CLOUDY    47  47 100 E6        30.09R
SEARCY         CLOUDY    49  48  97 E3        30.12R
HOT SPRINGS    CLOUDY    49  49 100 CALM      30.09R
RUSSELLVILLE   MOSUNNY   43  41  93 CALM      30.07R
CLINTON        PTSUNNY   37  36  93 CALM      30.10R
$$

ARZ036-271500-
EAST ARKANSAS

CITY           SKY/WX    TMP DP  RH WIND       PRES   REMARKS
WEST MEMPHIS   SUNNY     49  47  93 SE8       30.11R
$$

ARZ050-053-066-070-073-271500-
SOUTHWEST ARKANSAS

CITY           SKY/WX    TMP DP  RH WIND       PRES   REMARKS
ARKADELPHIA    CLOUDY    50  50 100 E5        30.07F
CAMDEN         LGT RAIN  50  48  93 CALM      30.10F
TEXARKANA      CLOUDY    50  50 100 E6        30.05R FOG
EL DORADO      CLOUDY    52  51  97 CALM      30.09R
DE QUEEN       CLOUDY    51  51 100 E7        30.03R
$$

ARZ056-057-069-271500-
SOUTHEAST ARKANSAS

CITY           SKY/WX    TMP DP  RH WIND       PRES   REMARKS
PINE BLUFF     LGT RAIN  49  49 100 SE8       30.11R
STUTTGART      CLOUDY    48  41  76 SE8       30.12R
MONTICELLO     LGT RAIN  51  49  92 CALM      30.12R

$$





USA.gov is the U.S. government's official web portal to all federal, state and local government web resources and services.